EA3KZ-1 Weather Reports


time (UTC)temp
C
wind
direction
speed
KPH
gust
KPH
rain 1hr
cm
rain 24hr
cm
rain mn
cm
humidity
%
barometer
mb
20260510204611 15 181 6.4 11.3 0.00 0.00 0.00 74 1007.5
20260510203609 16 214 4.8 14.5 0.00 0.00 0.00 72 1007.1
20260510202606 16 190 4.8 11.3 0.00 0.00 0.00 73 1007.2
20260510201603 16 162 4.8 9.7 0.00 0.00 0.00 73 1007.2
20260510200601 16 175 4.8 12.9 0.00 0.00 0.00 72 1007.0
20260510195558 16 228 3.2 9.7 0.00 0.00 0.00 70 1007.0
20260510194555 16 180 6.4 14.5 0.00 0.00 0.00 71 1006.8
20260510193553 17 117 6.4 14.5 0.00 0.00 0.00 69 1006.5
20260510192550 17 145 6.4 14.5 0.00 0.00 0.00 67 1006.7
20260510191548 17 159 6.4 14.5 0.00 0.00 0.00 66 1006.7
20260510190545 17 140 6.4 14.5 0.00 0.00 0.00 65 1006.6
20260510185543 17 177 11.3 20.9 0.00 0.00 0.00 64 1006.5
20260510184540 17 135 8.0 14.5 0.00 0.00 0.00 62 1006.5
20260510183537 17 175 12.9 22.5 0.00 0.00 0.00 60 1006.3
20260510182535 18 128 11.3 22.5 0.00 0.00 0.00 57 1006.2
20260510181532 18 130 11.3 22.5 0.00 0.00 0.00 54 1006.1
20260510180530 18 129 12.9 22.5 0.00 0.00 0.00 51 1006.1
20260510175527 19 170 14.5 27.4 0.00 0.00 0.00 50 1006.0
20260510174524 20 171 9.7 20.9 0.00 0.00 0.00 50 1005.8
20260510173522 20 84 11.3 22.5 0.00 0.03 0.00 51 1005.6
20260510172519 20 108 12.9 27.4 0.00 0.03 0.00 49 1005.6
20260510171517 20 144 11.3 24.1 0.00 0.10 0.00 50 1005.4
20260510170614 20 150 9.7 17.7 0.00 0.13 0.00 50 1005.3
20260510165612 20 160 11.3 22.5 0.00 0.15 0.00 50 1005.4
20260510164609 20 114 12.9 29.0 0.00 0.20 0.00 51 1005.4
20260510163606 21 133 11.3 22.5 0.00 0.30 0.00 51 1005.2
20260510162604 20 125 14.5 25.7 0.00 0.46 0.00 51 1005.2
20260510161601 21 129 11.3 24.1 0.00 0.48 0.00 51 1005.2
20260510160558 21 136 12.9 27.4 0.00 0.51 0.00 51 1005.1
20260510155556 21 124 9.7 17.7 0.00 0.53 0.00 51 1005.3
20260510154553 21 125 12.9 27.4 0.00 0.61 0.00 51 1005.3
20260510153550 21 116 9.7 24.1 0.00 0.71 0.00 52 1005.2
20260510152548 21 143 11.3 22.5 0.00 0.79 0.00 52 1005.3
20260510151545 21 138 12.9 24.1 0.00 0.81 0.00 52 1005.5
20260510150543 21 171 9.7 22.5 0.00 0.84 0.00 52 1005.5
20260510145540 22 110 8.0 17.7 0.00 0.86 0.00 51 1005.7
20260510144537 22 131 9.7 24.1 0.00 0.89 0.00 51 1005.5
20260510143535 21 139 6.4 17.7 0.00 0.97 0.00 52 1005.7
20260510142532 21 47 11.3 27.4 0.00 1.02 0.00 54 1005.9
20260510141530 21 146 8.0 24.1 0.00 1.04 0.00 56 1005.8
20260510140527 21 159 9.7 25.7 0.00 1.09 0.00 57 1006.0
20260510135524 20 103 8.0 27.4 0.00 1.09 0.00 60 1006.1
20260510134522 21 112 9.7 20.9 0.00 1.09 0.00 60 1006.2
20260510133519 20 154 11.3 24.1 0.00 1.09 0.00 61 1006.3
20260510132516 21 87 8.0 17.7 0.00 1.09 0.00 59 1006.4
20260510131614 21 133 9.7 20.9 0.00 1.09 0.00 58 1006.5
20260510130611 20 170 11.3 20.9 0.00 1.09 0.00 60 1006.6
20260510125609 20 91 6.4 17.7 0.00 1.09 0.00 63 1006.7
20260510124606 20 122 8.0 17.7 0.00 1.09 0.00 62 1006.7
20260510123604 20 82 11.3 20.9 0.00 1.09 0.00 62 1006.8
20260510122601 20 121 12.9 33.8 0.00 1.09 0.00 67 1007.0
20260510121558 20 116 8.0 17.7 0.00 1.09 0.00 66 1007.2
20260510120556 20 130 8.0 22.5 0.00 1.09 0.00 63 1007.2
20260510115553 20 92 8.0 17.7 0.00 1.09 0.00 62 1007.1
20260510114551 20 105 9.7 24.1 0.00 1.09 0.00 63 1007.3
20260510113548 20 98 12.9 25.7 0.00 1.09 0.00 65 1007.5
20260510112545 20 124 11.3 24.1 0.00 1.09 0.00 66 1007.5
20260510111543 20 111 4.8 12.9 0.00 1.09 0.00 65 1007.4
20260510110540 20 126 11.3 22.5 0.00 1.09 0.00 67 1007.6
20260510105537 20 151 8.0 17.7 0.00 1.09 0.00 68 1007.6
20260510104535 19 156 11.3 20.9 0.00 1.09 0.00 70 1007.7
20260510103532 19 154 8.0 17.7 0.00 1.09 0.00 71 1007.8
20260510102529 18 221 3.2 12.9 0.00 1.09 0.00 75 1007.8
20260510101527 18 192 6.4 14.5 0.00 1.09 0.00 72 1007.9
20260510100524 18 164 6.4 17.7 0.00 1.09 0.00 74 1008.0
20260510095522 18 139 4.8 17.7 0.00 1.09 0.00 74 1008.0
20260510094519 17 130 8.0 17.7 0.00 1.09 0.00 75 1008.1
20260510093517 17 132 9.7 22.5 0.00 1.09 0.00 76 1008.0
20260510092614 17 135 8.0 12.9 0.00 1.09 0.00 77 1008.1
20260510091612 17 133 9.7 14.5 0.00 1.09 0.00 78 1008.2
20260510090609 16 166 8.0 17.7 0.00 1.09 0.00 80 1008.0
20260510085606 16 161 6.4 17.7 0.00 1.09 0.00 80 1008.1
20260510084604 16 126 8.0 20.9 0.00 1.09 0.00 82 1008.0
20260510083601 16 120 6.4 17.7 0.00 1.09 0.00 82 1008.1
20260510082559 15 128 6.4 14.5 0.00 1.09 0.00 83 1008.1
20260510081556 15 131 8.0 14.5 0.00 1.09 0.00 83 1008.0
20260510080553 15 124 11.3 20.9 0.00 1.09 0.00 84 1007.8
20260510075551 14 123 8.0 17.7 0.00 1.09 0.00 84 1007.9
20260510074548 14 135 9.7 17.7 0.00 1.09 0.00 84 1007.8
20260510073546 14 119 8.0 17.7 0.00 1.09 0.00 85 1007.8
20260510072543 14 172 9.7 17.7 0.00 1.09 0.00 85 1007.6
20260510071540 14 154 4.8 11.3 0.00 1.09 0.00 86 1007.6
20260510070538 13 137 6.4 14.5 0.00 1.09 0.00 85 1007.4
20260510065535 13 177 6.4 11.3 0.00 1.09 0.00 86 1007.4
20260510064533 13 144 3.2 6.4 0.00 1.09 0.00 89 1007.5
20260510063530 13 101 1.6 6.4 0.00 1.09 0.00 90 1007.5
20260510062527 13 101 1.6 3.2 0.00 1.09 0.00 91 1007.4
20260510061525 12 0.0 3.2 0.00 1.09 0.00 92 1007.4
20260510060522 12 229 1.6 3.2 0.00 1.09 0.00 94 1007.3
20260510055520 11 218 0.0 3.2 0.00 1.09 0.00 95 1007.3
20260510054517 11 158 0.0 3.2 0.00 1.09 0.00 95 1007.4
20260510053615 11 0.0 3.2 0.00 1.09 0.00 95 1007.4
20260510052612 11 152 0.0 3.2 0.00 1.09 0.00 95 1007.3
20260510050607 11 163 1.6 6.4 0.00 1.09 0.00 95 1007.1
20260510045604 10 215 1.6 3.2 0.00 1.09 0.00 95 1007.1
20260510044602 10 227 3.2 9.7 0.00 1.09 0.00 95 1007.3
20260510043559 11 234 1.6 3.2 0.00 1.09 0.00 95 1007.3
20260510042556 11 240 0.0 3.2 0.00 1.09 0.00 95 1007.4
20260510041554 11 229 3.2 6.4 0.00 1.09 0.00 95 1007.3
20260510040551 11 227 1.6 6.4 0.00 1.09 0.00 96 1007.3
20260510035548 11 232 3.2 6.4 0.00 1.09 0.00 96 1007.4
20260510034546 11 226 1.6 6.4 0.00 1.09 0.00 96 1007.5
20260510033543 11 235 1.6 3.2 0.00 1.09 0.00 96 1007.4
20260510032541 11 0.0 3.2 0.00 1.09 0.00 96 1007.5
20260510031538 11 0.0 0.0 0.00 1.09 0.00 95 1007.4
20260510030536 11 0.0 0.0 0.00 1.09 0.00 95 1007.5
20260510025533 11 0.0 3.2 0.00 1.09 0.00 95 1007.7
20260510024530 11 276 1.6 3.2 0.00 1.09 0.00 95 1007.6
20260510023528 11 0.0 3.2 0.00 1.09 0.00 95 1007.9
20260510022525 11 180 0.0 3.2 0.00 1.09 0.00 95 1008.0
20260510021523 11 189 1.6 3.2 0.00 1.09 0.00 95 1007.8
20260510020520 11 180 1.6 6.4 0.00 1.09 0.00 94 1007.9
20260510015517 11 205 1.6 6.4 0.00 1.09 0.00 94 1007.7
20260510014515 11 194 1.6 3.2 0.00 1.09 0.00 93 1007.7
20260510013612 11 213 1.6 3.2 0.00 1.09 0.00 93 1007.7
20260510012610 11 222 1.6 3.2 0.00 1.09 0.00 94 1007.6
20260510011607 12 251 1.6 3.2 0.00 1.09 0.00 94 1007.8
20260510010604 11 225 0.0 3.2 0.00 1.09 0.00 95 1007.6
20260510005602 11 256 1.6 3.2 0.00 1.09 0.00 95 1007.9
20260510004559 11 270 0.0 3.2 0.00 1.09 0.00 95 1007.9
20260510003557 11 229 1.6 3.2 0.00 1.09 0.00 95 1008.2
20260510002554 11 193 1.6 3.2 0.00 1.09 0.00 94 1008.1
20260510001551 12 203 0.0 3.2 0.00 1.09 0.00 94 1008.1
20260510000549 12 225 3.2 6.4 0.00 1.09 0.00 95 1008.4
20260509235546 12 225 4.8 6.4 0.00 1.09 1.09 95 1008.9
20260509234544 12 203 1.6 6.4 0.00 1.09 1.09 95 1008.8
20260509233541 12 230 3.2 6.4 0.00 1.09 1.09 95 1008.8
20260509232539 12 229 4.8 6.4 0.00 1.09 1.09 95 1008.8
20260509231536 12 206 3.2 6.4 0.00 1.09 1.09 95 1008.9
20260509230533 12 203 3.2 6.4 0.00 1.09 1.09 96 1008.9
20260509225531 12 232 3.2 6.4 0.00 1.09 1.09 96 1009.0
20260509224528 12 237 3.2 6.4 0.00 1.09 1.09 96 1009.0
20260509223525 12 170 3.2 6.4 0.00 1.09 1.09 96 1009.0
20260509222523 12 226 1.6 6.4 0.00 1.09 1.09 96 1008.9
20260509221520 12 212 3.2 6.4 0.00 1.09 1.09 96 1008.9
20260509220518 12 206 3.2 6.4 0.00 1.09 1.09 96 1008.9
20260509215515 12 195 1.6 6.4 0.00 1.09 1.09 96 1008.8
20260509214612 12 212 0.0 6.4 0.00 1.09 1.09 96 1008.9
20260509213610 12 180 1.6 3.2 0.00 1.09 1.09 96 1008.8
20260509212607 12 232 1.6 6.4 0.00 1.09 1.09 96 1008.7
20260509211605 12 235 3.2 6.4 0.00 1.09 1.09 97 1008.8
20260509210602 12 241 3.2 6.4 0.00 1.09 1.09 97 1008.7
20260509205559 12 223 1.6 6.4 0.00 1.09 1.09 97 1008.8